Regional Weather Roundup
Issued by NWS

Home | Current Version | Previous Version | Text Only | Print | Product List | Glossary Off
Versions: 1 2 3 4 5 6 7 8 9 10 11 12 13 14 15 16 17 18 19 20 21 22 23 24 25 26 27 28 29 30 31 32 33 34 35 36 37 38 39 40 41 42 43 44 45 46 47 48 49 50

000
ASUS43 KIND 300709
RWRIN

WEATHER ROUNDUP FOR INDIANA
NATIONAL WEATHER SERVICE INDIANAPOLIS IN
300 AM EDT SAT AUG 30 2014

NOTE: "FAIR" INDICATES FEW OR NO CLOUDS BELOW 12,000 FEET WITH NO
SIGNIFICANT WEATHER AND/OR OBSTRUCTIONS TO VISIBILITY.

* - STATION DOES NOT REPORT WEATHER SUCH AS PRECIPITATION OR FOG.

+ - STATION NOT QUALITY CONTROLLED BY THE NATIONAL WEATHER SERVICE.
    USE DATA WITH CAUTION...ESPECIALLY DEWPOINT AND RELATIVE
    HUMIDITY OBSERVATIONS.

INZ001>003-010>013-019-020-300800-
NORTHWEST INDIANA

CITY           SKY/WX    TMP DP  RH WIND       PRES   REMARKS
GARY /AIRPORT/ PTCLDY    75  69  80 S8        29.88F
KNOX *+        CLEAR     72  68  88 S10       29.91F
LA PORTE +     PTCLDY    69  69 100 S7        29.92F
MICHIGAN CITY+ PTCLDY    72  70  94 S8        29.90F
MONTICELLO +   CLEAR     73  69  86 S7        29.93F
RENSSELAER +   PTCLDY    72  70  94 S8        29.91F
VALPARAISO     PTCLDY    72  69  90 S8        29.91F

$$

LMZ046-743>745-300800-
SOUTHERN LAKE MICHIGAN

STATION/POSITION TIME  TEMP WIND        PRES
                       AIR  DIR/SP/G
                 (UTC) (F)  (DEG/KT/KT) (MB)
MICHIGAN CITY    0700   73  140/ 11/ 17   N/A

$$

INZ004-005-014>016-021>024-300800-
NORTH CENTRAL INDIANA

CITY           SKY/WX    TMP DP  RH WIND       PRES   REMARKS
GOSHEN         PTCLDY    75  67  76 S9        29.94F
LOGANSPORT +   CLEAR     70  63  78 S8        29.96S
PERU/GRISSOM   CLEAR     72  72  99 S6        29.96F
ROCHESTER +    CLEAR     73  70  88 S7        29.95F
SOUTH BEND     PTCLDY    73  69  87 S12       29.92F
WARSAW +       CLEAR     73  68  83 S5        29.95F

$$

INZ006>009-017-018-025>027-300800-
NORTHEAST INDIANA

CITY           SKY/WX    TMP DP  RH WIND       PRES   REMARKS
ANGOLA *+      CLEAR     70  61  73 S5        29.98F
AUBURN +       MOCLDY    72  64  78 S3        29.99F
FORT WAYNE     PTCLDY    71  66  84 S9        29.98F
HUNTINGTON +   PTCLDY    70  67  89 S3        29.98S

$$

INZ028-029-035-036-043>045-051>053-300800-
WEST CENTRAL INDIANA

CITY           SKY/WX    TMP DP  RH WIND       PRES   REMARKS
GREENCASTLE +  PTCLDY    70  64  83 S5        29.98F
LAFAYETTE      PTCLDY    72  67  84 S6        29.93F
TERRE HAUTE    PTCLDY    74  67  78 S7        29.96S

$$

INZ030>032-037>040-046>048-054>057-064-065-300800-
CENTRAL INDIANA

CITY           SKY/WX    TMP DP  RH WIND       PRES   REMARKS
CP ATTERBURY + CLEAR     68  63  83 CALM      30.01S
FRANKFORT +    CLEAR     72  72 100 S6        29.98S
INDIANAPOLIS   CLEAR     73  63  70 S9        29.97F
-EAGLE CREEK   CLEAR     73  63  70 MISG      29.98F
KOKOMO *+      CLEAR     72  66  83 S9        29.97S
MARION +       CLEAR     70  65  82 S8        29.99S
MT COMFORT *+  CLEAR     70  66  88 S6        30.00F
SHELBYVILLE    PTCLDY    72  63  73 S7        30.00F
ZIONSVILLE +   CLEAR     73  63  71 S6        29.99S

$$

INZ033-034-041-042-049-050-058-059-300800-
EAST CENTRAL INDIANA

CITY           SKY/WX    TMP DP  RH WIND       PRES   REMARKS
MUNCIE         PTCLDY    75  63  66 S10       30.00F

$$

INZ060-061-067>069-081>083-085>088-300800-
SOUTHWEST INDIANA

CITY           SKY/WX    TMP DP  RH WIND       PRES   REMARKS
EVANSVILLE     MOCLDY    78  65  63 SW9       29.99S
WASHINGTON +   PTCLDY    72  68  88 S6        29.97F

$$

INZ062-063-066-070>080-084-089>092-300800-
SOUTH CENTRAL AND SOUTHEAST INDIANA

CITY           SKY/WX    TMP DP  RH WIND       PRES   REMARKS
BLOOMINGTON    CLEAR     71  64  78 S6        29.99F

$$




USA.gov is the U.S. government's official web portal to all federal, state and local government web resources and services.